STARLINK-34449

Last updated on Thu Jul 03 2025 00:02:07 GMT+0000 (Coordinated Universal Time)

1 64465U 25130AD 25183.58335648 -.00018559 00000+0 -12260-3 0 9990 2 64465 53.1568 179.7002 0000806 50.4239 104.8197 15.74208498 3515
UTC large
Height (km)
Speed (km/s)
/
Latitude / Longitude
Inclination (degrees)
Orbital Period (minutes)
Azimuth
Elevation
Range (km)
Doppler Factor

Next 0 passes for location: London (51.5072 / 0.1276)

Sorry there are no passes over London.